Home > Weather > Nizhny Novgorod > Past weeks

Flag for Russia Past Weather in Nizhny Novgorod, Russia — Yesterday and Last 2 Weeks

Now
59 °F

Fog.


Feels Like: 59 °F
Forecast: 57 / 82 °F
Wind: No wind

Location: Nizhny Novgorod/Strigino

Current Time: Jul 1, 2016 at 11:42:44 PM

Latest Report: Jul 1, 2016 at 11:00 PM


Visibility: N/A

Pressure: 30.01 "Hg

Humidity: 94%

Dew Point: 57 °F

Location of Nizhny NovgorodLocation

Past Weather in Nizhny Novgorod — Graph

°F

Nizhny Novgorod Temperature Yesterday

Maximum temperature yesterday: 75 °F (at 2:00 PM)
Minimum temperature yesterday: 46 °F (at 3:00 AM)
Average temperature yesterday: 64 °F

High & Low Weather Summary for the Past Weeks

 TemperatureHumidityPressure
High88 °F (Jun 18, 3:30 PM)100% (Jun 17, 11:00 PM)30.30 "Hg (Jun 17, 11:00 PM)
Low45 °F (Jun 29, 2:30 AM)34% (Jun 24, 12:30 PM)29.74 "Hg (Jun 27, 8:30 AM)
Average69 °F73%30.02 "Hg
* Reported Jun 16 10:00 PM — Jul 1 10:00 PM, Nizhny Novgorod, Weather by CustomWeather, © 2016

Note: Actual official high and low records may vary slightly from our data, if they occured in-between our weather recording intervals... More about our weather records

Advertising

Nizhny Novgorod Weather History for the Previous 24 Hours

Scroll right to see more
 ConditionsComfort  
Time TempWeatherWind HumidityBarometerVisibility
10:00 PM
Fri, Jul 1
61 °FFog.No wind94%30.01 "HgN/A
9:30 PM61 °FPassing clouds.No wind94%30.01 "HgN/A
9:00 PM63 °FPassing clouds.3 mph88%30.01 "HgN/A
8:30 PM68 °FPassing clouds.1 mph73%30.01 "HgN/A
8:00 PM72 °FPassing clouds.1 mph65%29.98 "HgN/A
7:30 PM72 °FPassing clouds.3 mph73%29.98 "HgN/A
7:00 PM75 °FPassing clouds.1 mph65%29.98 "HgN/A
6:30 PM77 °FPassing clouds.1 mph54%29.98 "HgN/A
6:00 PM79 °FScattered clouds.3 mph45%29.98 "HgN/A
5:30 PM77 °FScattered clouds.3 mph51%29.98 "HgN/A
5:00 PM77 °FScattered clouds.1 mph51%29.98 "HgN/A
4:30 PM77 °FScattered clouds.1 mph54%30.01 "HgN/A
3:30 PM77 °FScattered clouds.3 mph51%29.98 "HgN/A
3:00 PM79 °FScattered clouds.3 mph48%30.01 "HgN/A
2:30 PM75 °FScattered clouds.3 mph57%30.01 "HgN/A
2:00 PM79 °FScattered clouds.3 mph45%30.01 "HgN/A
1:30 PM75 °FScattered clouds.8 mph54%30.01 "HgN/A
1:00 PM79 °FScattered clouds.6 mph45%30.01 "HgN/A
12:30 PM79 °FScattered clouds.3 mph45%30.01 "HgN/A
12:00 PM77 °FScattered clouds.8 mph44%30.01 "HgN/A
11:30 AM79 °FPassing clouds.3 mph45%30.01 "HgN/A
11:00 AM77 °FPassing clouds.6 mph51%30.01 "HgN/A
10:30 AM77 °FPassing clouds.3 mph54%30.01 "HgN/A
10:00 AM73 °FPassing clouds.3 mph65%30.01 "HgN/A
9:30 AM72 °FPassing clouds.1 mph69%30.01 "HgN/A
9:00 AM70 °FPassing clouds.1 mph73%30.01 "HgN/A
8:30 AM68 °FPartly sunny.1 mph78%30.01 "HgN/A
8:00 AM68 °FScattered clouds.3 mph78%30.01 "HgN/A
7:30 AM66 °FScattered clouds.3 mph78%30.01 "HgN/A
7:00 AM66 °FPassing clouds.1 mph78%30.01 "HgN/A
6:30 AM64 °FPassing clouds.1 mph83%30.01 "HgN/A
6:00 AM64 °FPassing clouds.3 mph83%30.01 "HgN/A
5:30 AM63 °FPassing clouds.1 mph88%30.01 "HgN/A
5:00 AM61 °FFog.1 mph94%30.01 "HgN/A
4:30 AM59 °FFog.No wind94%30.01 "HgN/A
4:00 AM55 °FFog.1 mph94%30.01 "HgN/A
3:30 AM52 °FFog.1 mph100%29.98 "Hg6 mi
3:00 AM52 °FFog.No wind100%29.98 "HgN/A
2:30 AM52 °FFog.No wind100%29.98 "HgN/A
2:00 AM52 °FFog.No wind100%29.98 "HgN/A
1:30 AM54 °FFog.No wind100%29.98 "HgN/A
1:00 AM54 °FFog.No wind100%29.98 "HgN/A
12:30 AM54 °FFog.1 mph100%29.98 "HgN/A
12:00 AM54 °FFog.No wind100%29.98 "HgN/A
11:30 PM
Thu, Jun 30
55 °FPassing clouds.No wind94%29.98 "HgN/A
11:00 PM57 °FPassing clouds.1 mph94%29.98 "HgN/A
Weather by CustomWeather, © 2016

See weather overviewHow to use our weather pages